Time,TemperatureF,DewpointF,PressureIn,WindDirection,WindDirectionDegrees,WindSpeedMPH,WindSpeedGustMPH,Humidity,HourlyPrecipIn,Conditions,Clouds,dailyrainin,SoftwareType,DateUTC
2013-09-17 00:01:00,56.0,47.0,30.31,NNW,337,4.7,11.0,70,0.00,,,0.00,Rainwise IP-100,2013-09-17 04:01:00,
2013-09-17 00:06:00,55.8,47.0,30.31,NNE,22,4.0,8.0,71,0.00,,,0.00,Rainwise IP-100,2013-09-17 04:06:00,
2013-09-17 00:11:00,55.5,47.0,30.32,NNW,337,6.3,8.0,71,0.00,,,0.00,Rainwise IP-100,2013-09-17 04:11:00,
2013-09-17 00:16:00,55.4,47.0,30.32,NNW,337,6.1,10.0,72,0.00,,,0.00,Rainwise IP-100,2013-09-17 04:16:00,
2013-09-17 00:21:00,55.3,47.0,30.32,NNW,337,3.0,10.0,72,0.00,,,0.00,Rainwise IP-100,2013-09-17 04:21:00,
2013-09-17 00:26:00,55.1,47.0,30.32,NNW,337,2.8,9.0,72,0.00,,,0.00,Rainwise IP-100,2013-09-17 04:26:00,
2013-09-17 00:31:00,54.9,47.0,30.32,North,360,8.6,8.6,72,0.00,,,0.00,Rainwise IP-100,2013-09-17 04:31:00,
2013-09-17 00:37:00,54.7,46.0,30.32,NNW,337,4.0,9.0,73,0.00,,,0.00,Rainwise IP-100,2013-09-17 04:37:00,
2013-09-17 00:42:00,54.5,46.0,30.32,NNW,337,4.4,11.0,73,0.00,,,0.00,Rainwise IP-100,2013-09-17 04:42:00,
2013-09-17 00:47:00,54.5,46.0,30.33,North,360,4.4,9.0,73,0.00,,,0.00,Rainwise IP-100,2013-09-17 04:47:00,
2013-09-17 00:52:00,54.4,47.0,30.32,North,360,5.4,10.0,74,0.00,,,0.00,Rainwise IP-100,2013-09-17 04:52:00,
2013-09-17 00:57:00,54.3,46.0,30.33,NNW,337,6.5,10.0,74,0.00,,,0.00,Rainwise IP-100,2013-09-17 04:57:00,
2013-09-17 01:02:00,54.0,46.0,30.33,NNW,337,6.1,10.0,73,0.00,,,0.00,Rainwise IP-100,2013-09-17 05:02:00,
2013-09-17 01:07:00,53.6,45.0,30.33,NW,315,7.5,8.0,74,0.00,,,0.00,Rainwise IP-100,2013-09-17 05:07:00,
2013-09-17 01:13:00,53.5,45.0,30.33,North,360,5.4,9.0,74,0.00,,,0.00,Rainwise IP-100,2013-09-17 05:13:00,
2013-09-17 01:18:00,53.5,45.0,30.33,NW,315,5.8,8.0,74,0.00,,,0.00,Rainwise IP-100,2013-09-17 05:18:00,
2013-09-17 01:23:00,53.4,45.0,30.33,NNW,337,4.4,10.0,74,0.00,,,0.00,Rainwise IP-100,2013-09-17 05:23:00,
2013-09-17 01:28:00,53.1,45.0,30.34,North,360,4.4,9.0,74,0.00,,,0.00,Rainwise IP-100,2013-09-17 05:28:00,
2013-09-17 01:33:00,52.9,45.0,30.34,NNW,337,5.8,11.0,74,0.00,,,0.00,Rainwise IP-100,2013-09-17 05:33:00,
2013-09-17 01:38:00,52.9,44.0,30.35,NNW,337,7.0,14.0,73,0.00,,,0.00,Rainwise IP-100,2013-09-17 05:38:00,
2013-09-17 01:43:00,52.8,44.0,30.34,North,360,4.0,11.0,73,0.00,,,0.00,Rainwise IP-100,2013-09-17 05:43:00,
2013-09-17 01:48:00,52.6,44.0,30.35,North,360,2.1,9.0,73,0.00,,,0.00,Rainwise IP-100,2013-09-17 05:48:00,
2013-09-17 01:54:00,52.3,43.0,30.35,NNE,22,5.6,10.0,73,0.00,,,0.00,Rainwise IP-100,2013-09-17 05:54:00,
2013-09-17 01:59:00,52.1,43.0,30.35,North,360,3.7,10.0,73,0.00,,,0.00,Rainwise IP-100,2013-09-17 05:59:00,
2013-09-17 02:04:00,51.8,43.0,30.36,North,360,7.7,9.0,73,0.00,,,0.00,Rainwise IP-100,2013-09-17 06:04:00,
2013-09-17 02:09:00,51.5,44.0,30.36,North,360,5.1,10.0,74,0.00,,,0.00,Rainwise IP-100,2013-09-17 06:09:00,
2013-09-17 02:14:00,51.4,43.0,30.36,NNW,337,6.3,9.0,74,0.00,,,0.00,Rainwise IP-100,2013-09-17 06:14:00,
2013-09-17 02:19:00,51.2,43.0,30.36,North,360,5.4,9.0,74,0.00,,,0.00,Rainwise IP-100,2013-09-17 06:19:00,
2013-09-17 02:24:00,51.0,43.0,30.36,North,360,9.8,13.0,74,0.00,,,0.00,Rainwise IP-100,2013-09-17 06:24:00,
2013-09-17 02:30:00,50.9,43.0,30.36,NNE,22,6.3,13.0,74,0.00,,,0.00,Rainwise IP-100,2013-09-17 06:30:00,
2013-09-17 02:35:00,50.8,42.0,30.37,North,360,5.1,9.0,74,0.00,,,0.00,Rainwise IP-100,2013-09-17 06:35:00,
2013-09-17 02:40:00,50.6,42.0,30.37,North,360,3.5,6.0,74,0.00,,,0.00,Rainwise IP-100,2013-09-17 06:40:00,
2013-09-17 02:41:00,50.5,42.0,30.37,North,360,2.3,6.0,74,0.00,,,0.00,Rainwise IP-100,2013-09-17 06:41:00,
2013-09-17 02:46:00,50.2,42.0,30.38,NNE,22,3.5,9.0,75,0.00,,,0.00,Rainwise IP-100,2013-09-17 06:46:00,
2013-09-17 02:51:00,50.0,42.0,30.37,NNE,22,3.3,7.0,75,0.00,,,0.00,Rainwise IP-100,2013-09-17 06:51:00,
2013-09-17 02:56:00,49.8,42.0,30.38,NE,45,1.4,6.0,75,0.00,,,0.00,Rainwise IP-100,2013-09-17 06:56:00,
2013-09-17 03:01:00,49.6,42.0,30.38,North,360,3.7,6.0,76,0.00,,,0.00,Rainwise IP-100,2013-09-17 07:01:00,
2013-09-17 03:07:00,49.4,42.0,30.37,NNE,22,5.1,8.0,76,0.00,,,0.00,Rainwise IP-100,2013-09-17 07:07:00,
2013-09-17 03:12:00,49.4,41.0,30.37,North,360,5.8,7.0,75,0.00,,,0.00,Rainwise IP-100,2013-09-17 07:12:00,
2013-09-17 03:17:00,49.3,41.0,30.37,North,360,4.0,8.0,75,0.00,,,0.00,Rainwise IP-100,2013-09-17 07:17:00,
2013-09-17 03:22:00,49.1,41.0,30.37,NNW,337,2.3,7.0,75,0.00,,,0.00,Rainwise IP-100,2013-09-17 07:22:00,
2013-09-17 03:27:00,49.2,42.0,30.37,NNW,337,4.7,8.0,76,0.00,,,0.00,Rainwise IP-100,2013-09-17 07:27:00,
2013-09-17 03:32:00,49.3,42.0,30.37,North,360,1.9,9.0,77,0.00,,,0.00,Rainwise IP-100,2013-09-17 07:32:00,
2013-09-17 03:37:00,49.4,42.0,30.38,NNW,337,6.3,11.0,77,0.00,,,0.00,Rainwise IP-100,2013-09-17 07:37:00,
2013-09-17 03:42:00,49.4,42.0,30.38,NNW,337,7.2,9.0,77,0.00,,,0.00,Rainwise IP-100,2013-09-17 07:42:00,
2013-09-17 03:48:00,49.3,42.0,30.38,North,360,4.9,10.0,77,0.00,,,0.00,Rainwise IP-100,2013-09-17 07:48:00,
2013-09-17 03:53:00,49.2,42.0,30.38,NNW,337,8.4,9.0,77,0.00,,,0.00,Rainwise IP-100,2013-09-17 07:53:00,
2013-09-17 03:58:00,49.1,42.0,30.38,NNW,337,4.2,10.0,77,0.00,,,0.00,Rainwise IP-100,2013-09-17 07:58:00,
2013-09-17 04:03:00,49.0,42.0,30.38,NW,315,10.3,10.3,77,0.00,,,0.00,Rainwise IP-100,2013-09-17 08:03:00,
2013-09-17 04:08:00,48.8,42.0,30.38,NNW,337,4.9,10.0,78,0.00,,,0.00,Rainwise IP-100,2013-09-17 08:08:00,
2013-09-17 04:12:00,48.5,42.0,30.38,NW,315,8.4,9.0,78,0.00,,,0.00,Rainwise IP-100,2013-09-17 08:12:00,
2013-09-17 04:18:00,48.3,42.0,30.38,NW,315,6.3,10.0,78,0.00,,,0.00,Rainwise IP-100,2013-09-17 08:18:00,
2013-09-17 04:23:00,48.2,42.0,30.38,NNW,337,8.2,8.2,78,0.00,,,0.00,Rainwise IP-100,2013-09-17 08:23:00,
2013-09-17 04:28:00,48.2,42.0,30.38,WNW,292,4.2,8.0,78,0.00,,,0.00,Rainwise IP-100,2013-09-17 08:28:00,
2013-09-17 04:33:00,48.1,42.0,30.38,NNE,22,2.6,7.0,78,0.00,,,0.00,Rainwise IP-100,2013-09-17 08:33:00,
2013-09-17 04:38:00,47.8,40.0,30.38,NNW,337,5.6,9.0,77,0.00,,,0.00,Rainwise IP-100,2013-09-17 08:38:00,
2013-09-17 04:43:00,47.5,40.0,30.38,North,360,4.0,6.0,76,0.00,,,0.00,Rainwise IP-100,2013-09-17 08:43:00,
2013-09-17 04:48:00,47.2,39.0,30.39,NNW,337,4.7,7.0,76,0.00,,,0.00,Rainwise IP-100,2013-09-17 08:48:00,
2013-09-17 04:54:00,47.1,39.0,30.39,North,360,6.8,7.0,76,0.00,,,0.00,Rainwise IP-100,2013-09-17 08:54:00,
2013-09-17 04:59:00,47.1,39.0,30.39,North,360,3.0,8.0,76,0.00,,,0.00,Rainwise IP-100,2013-09-17 08:59:00,
2013-09-17 05:04:00,47.1,39.0,30.39,NNW,337,5.4,7.0,76,0.00,,,0.00,Rainwise IP-100,2013-09-17 09:04:00,
2013-09-17 05:09:00,46.8,39.0,30.39,North,360,2.8,7.0,76,0.00,,,0.00,Rainwise IP-100,2013-09-17 09:09:00,
2013-09-17 05:14:00,46.6,39.0,30.40,North,360,3.3,7.0,76,0.00,,,0.00,Rainwise IP-100,2013-09-17 09:14:00,
2013-09-17 05:19:00,46.4,39.0,30.40,North,360,3.7,7.0,76,0.00,,,0.00,Rainwise IP-100,2013-09-17 09:19:00,
2013-09-17 05:24:00,46.4,39.0,30.40,North,360,3.7,5.0,76,0.00,,,0.00,Rainwise IP-100,2013-09-17 09:24:00,
2013-09-17 05:29:00,46.3,39.0,30.40,North,360,3.0,6.0,77,0.00,,,0.00,Rainwise IP-100,2013-09-17 09:29:00,
2013-09-17 05:35:00,46.2,39.0,30.40,North,360,4.0,6.0,76,0.00,,,0.00,Rainwise IP-100,2013-09-17 09:35:00,
2013-09-17 05:40:00,46.2,39.0,30.40,North,360,4.4,6.0,76,0.00,,,0.00,Rainwise IP-100,2013-09-17 09:40:00,
2013-09-17 05:45:00,46.2,39.0,30.41,NNW,337,4.9,7.0,76,0.00,,,0.00,Rainwise IP-100,2013-09-17 09:45:00,
2013-09-17 05:50:00,46.4,39.0,30.41,NW,315,5.4,7.0,77,0.00,,,0.00,Rainwise IP-100,2013-09-17 09:50:00,
2013-09-17 05:55:00,46.6,40.0,30.40,NNW,337,5.8,9.0,78,0.00,,,0.00,Rainwise IP-100,2013-09-17 09:55:00,
2013-09-17 06:00:00,46.6,40.0,30.41,North,360,5.4,10.0,79,0.00,,,0.00,Rainwise IP-100,2013-09-17 10:00:00,
2013-09-17 06:05:00,46.3,39.0,30.41,North,360,4.7,9.0,79,0.00,,,0.00,Rainwise IP-100,2013-09-17 10:05:00,
2013-09-17 06:11:00,46.2,39.0,30.41,NNW,337,6.3,12.0,78,0.00,,,0.00,Rainwise IP-100,2013-09-17 10:11:00,
2013-09-17 06:16:00,46.2,39.0,30.42,NNW,337,3.3,8.0,77,0.00,,,0.00,Rainwise IP-100,2013-09-17 10:16:00,
2013-09-17 06:21:00,46.4,39.0,30.42,North,360,5.4,11.0,76,0.00,,,0.00,Rainwise IP-100,2013-09-17 10:21:00,
2013-09-17 06:26:00,46.4,39.0,30.42,NNW,337,6.5,11.0,76,0.00,,,0.00,Rainwise IP-100,2013-09-17 10:26:00,
2013-09-17 06:31:00,46.4,38.0,30.42,NNW,337,7.7,10.0,75,0.00,,,0.00,Rainwise IP-100,2013-09-17 10:31:00,
2013-09-17 06:36:00,46.5,39.0,30.43,NNW,337,7.5,13.0,75,0.00,,,0.00,Rainwise IP-100,2013-09-17 10:36:00,
2013-09-17 06:41:00,46.5,39.0,30.43,NNW,337,8.6,14.0,74,0.00,,,0.00,Rainwise IP-100,2013-09-17 10:41:00,
2013-09-17 06:46:00,46.5,39.0,30.44,NNW,337,8.9,13.0,74,0.00,,,0.00,Rainwise IP-100,2013-09-17 10:46:00,
2013-09-17 06:52:00,46.7,39.0,30.44,NNW,337,9.6,10.0,75,0.00,,,0.00,Rainwise IP-100,2013-09-17 10:52:00,
2013-09-17 06:57:00,46.9,39.0,30.45,NW,315,8.4,9.0,76,0.00,,,0.00,Rainwise IP-100,2013-09-17 10:57:00,
2013-09-17 07:02:00,46.8,40.0,30.45,NW,315,3.7,10.0,77,0.00,,,0.00,Rainwise IP-100,2013-09-17 11:02:00,
2013-09-17 07:07:00,46.5,40.0,30.45,NNW,337,7.9,11.0,78,0.00,,,0.00,Rainwise IP-100,2013-09-17 11:07:00,
2013-09-17 07:12:00,46.4,39.0,30.45,NW,315,9.1,10.0,78,0.00,,,0.00,Rainwise IP-100,2013-09-17 11:12:00,
2013-09-17 07:17:00,46.7,40.0,30.45,NNW,337,6.5,10.0,78,0.00,,,0.00,Rainwise IP-100,2013-09-17 11:17:00,
2013-09-17 07:22:00,47.2,40.0,30.45,NNW,337,7.0,11.0,77,0.00,,,0.00,Rainwise IP-100,2013-09-17 11:22:00,
2013-09-17 07:28:00,47.7,40.0,30.46,North,360,7.2,11.0,76,0.00,,,0.00,Rainwise IP-100,2013-09-17 11:28:00,
2013-09-17 07:33:00,48.0,40.0,30.45,NNW,337,7.9,11.0,74,0.00,,,0.00,Rainwise IP-100,2013-09-17 11:33:00,
2013-09-17 07:38:00,48.1,40.0,30.45,NNW,337,6.8,11.0,73,0.00,,,0.00,Rainwise IP-100,2013-09-17 11:38:00,
2013-09-17 07:43:00,48.3,39.0,30.46,NNW,337,7.7,10.0,72,0.00,,,0.00,Rainwise IP-100,2013-09-17 11:43:00,
2013-09-17 07:48:00,48.5,40.0,30.46,North,360,8.6,11.0,71,0.00,,,0.00,Rainwise IP-100,2013-09-17 11:48:00,
2013-09-17 07:53:00,48.8,40.0,30.46,NNW,337,10.3,13.0,70,0.00,,,0.00,Rainwise IP-100,2013-09-17 11:53:00,
2013-09-17 07:58:00,49.1,40.0,30.46,NNE,22,8.6,13.0,70,0.00,,,0.00,Rainwise IP-100,2013-09-17 11:58:00,
2013-09-17 08:03:00,49.4,39.0,30.47,NNW,337,9.3,12.0,69,0.00,,,0.00,Rainwise IP-100,2013-09-17 12:03:00,
2013-09-17 08:09:00,49.7,40.0,30.47,NNW,337,10.0,10.0,69,0.00,,,0.00,Rainwise IP-100,2013-09-17 12:09:00,
2013-09-17 08:14:00,49.9,39.0,30.47,NNW,337,5.1,12.0,68,0.00,,,0.00,Rainwise IP-100,2013-09-17 12:14:00,
2013-09-17 08:19:00,50.1,39.0,30.47,North,360,5.1,13.0,67,0.00,,,0.00,Rainwise IP-100,2013-09-17 12:19:00,
2013-09-17 08:24:00,50.3,39.0,30.47,North,360,7.5,14.0,67,0.00,,,0.00,Rainwise IP-100,2013-09-17 12:24:00,
2013-09-17 08:29:00,50.6,39.0,30.48,NE,45,4.2,13.0,66,0.00,,,0.00,Rainwise IP-100,2013-09-17 12:29:00,
2013-09-17 08:34:00,50.9,40.0,30.47,NNW,337,8.9,13.0,65,0.00,,,0.00,Rainwise IP-100,2013-09-17 12:34:00,
2013-09-17 08:39:00,51.1,40.0,30.48,North,360,8.4,14.0,65,0.00,,,0.00,Rainwise IP-100,2013-09-17 12:39:00,
2013-09-17 08:45:00,51.3,39.0,30.48,ENE,67,5.1,13.0,64,0.00,,,0.00,Rainwise IP-100,2013-09-17 12:45:00,
2013-09-17 08:50:00,51.5,40.0,30.48,NNW,337,9.3,9.3,64,0.00,,,0.00,Rainwise IP-100,2013-09-17 12:50:00,
2013-09-17 08:55:00,51.8,40.0,30.48,North,360,7.9,9.0,64,0.00,,,0.00,Rainwise IP-100,2013-09-17 12:55:00,
2013-09-17 09:00:00,51.9,40.0,30.48,NNW,337,11.0,14.0,63,0.00,,,0.00,Rainwise IP-100,2013-09-17 13:00:00,
2013-09-17 09:05:00,52.1,39.0,30.48,NNE,22,0.0,14.0,62,0.00,,,0.00,Rainwise IP-100,2013-09-17 13:05:00,
2013-09-17 09:10:00,52.3,38.0,30.49,NE,45,0.0,14.0,60,0.00,,,0.00,Rainwise IP-100,2013-09-17 13:10:00,
2013-09-17 09:15:00,52.5,39.0,30.49,ENE,67,6.1,11.0,59,0.00,,,0.00,Rainwise IP-100,2013-09-17 13:15:00,
2013-09-17 09:20:00,52.7,38.0,30.49,NNE,22,7.7,15.0,57,0.00,,,0.00,Rainwise IP-100,2013-09-17 13:20:00,
2013-09-17 09:26:00,53.0,37.0,30.49,NNE,22,6.8,16.0,55,0.00,,,0.00,Rainwise IP-100,2013-09-17 13:26:00,
2013-09-17 09:31:00,53.3,37.0,30.49,WNW,292,0.0,11.0,55,0.00,,,0.00,Rainwise IP-100,2013-09-17 13:31:00,
2013-09-17 09:36:00,53.6,37.0,30.49,NE,45,0.0,11.0,54,0.00,,,0.00,Rainwise IP-100,2013-09-17 13:36:00,
2013-09-17 09:41:00,54.0,37.0,30.50,North,360,7.5,17.0,53,0.00,,,0.00,Rainwise IP-100,2013-09-17 13:41:00,
2013-09-17 09:46:00,54.0,37.0,30.50,SSW,202,1.2,16.0,52,0.00,,,0.00,Rainwise IP-100,2013-09-17 13:46:00,
2013-09-17 09:51:00,53.6,36.0,30.49,ENE,67,11.7,19.0,51,0.00,,,0.00,Rainwise IP-100,2013-09-17 13:51:00,
2013-09-17 09:56:00,53.7,36.0,30.50,ENE,67,5.1,12.0,52,0.00,,,0.00,Rainwise IP-100,2013-09-17 13:56:00,
2013-09-17 10:02:00,54.2,37.0,30.49,NNE,22,4.9,13.0,52,0.00,,,0.00,Rainwise IP-100,2013-09-17 14:02:00,
2013-09-17 10:07:00,54.9,37.0,30.49,NNE,22,3.0,14.0,51,0.00,,,0.00,Rainwise IP-100,2013-09-17 14:07:00,
2013-09-17 10:12:00,55.4,37.0,30.49,NNE,22,8.6,15.0,50,0.00,,,0.00,Rainwise IP-100,2013-09-17 14:12:00,
2013-09-17 10:17:00,55.0,37.0,30.49,NNE,22,8.4,11.0,50,0.00,,,0.00,Rainwise IP-100,2013-09-17 14:17:00,
2013-09-17 10:22:00,54.7,37.0,30.50,North,360,7.7,14.0,50,0.00,,,0.00,Rainwise IP-100,2013-09-17 14:22:00,
2013-09-17 10:27:00,54.7,37.0,30.49,NNE,22,12.8,14.0,50,0.00,,,0.00,Rainwise IP-100,2013-09-17 14:27:00,
2013-09-17 10:32:00,54.4,37.0,30.49,NNW,337,4.7,14.0,50,0.00,,,0.00,Rainwise IP-100,2013-09-17 14:32:00,
2013-09-17 10:37:00,54.9,37.0,30.49,NNE,22,7.7,15.0,51,0.00,,,0.00,Rainwise IP-100,2013-09-17 14:37:00,
2013-09-17 10:43:00,55.6,38.0,30.49,NNE,22,6.8,14.0,50,0.00,,,0.00,Rainwise IP-100,2013-09-17 14:43:00,
2013-09-17 10:48:00,55.9,38.0,30.49,NNE,22,3.7,10.0,50,0.00,,,0.00,Rainwise IP-100,2013-09-17 14:48:00,
2013-09-17 10:53:00,56.1,37.0,30.49,ESE,112,4.2,9.0,49,0.00,,,0.00,Rainwise IP-100,2013-09-17 14:53:00,
2013-09-17 10:58:00,56.2,38.0,30.50,ENE,67,5.1,7.0,50,0.00,,,0.00,Rainwise IP-100,2013-09-17 14:58:00,
2013-09-17 11:03:00,56.3,37.0,30.49,North,360,4.7,12.0,49,0.00,,,0.00,Rainwise IP-100,2013-09-17 15:03:00,
2013-09-17 11:08:00,56.7,38.0,30.49,North,360,7.7,10.0,49,0.00,,,0.00,Rainwise IP-100,2013-09-17 15:08:00,
2013-09-17 11:13:00,57.1,38.0,30.49,NNE,22,4.4,12.0,49,0.00,,,0.00,Rainwise IP-100,2013-09-17 15:13:00,
2013-09-17 11:19:00,56.8,38.0,30.49,North,360,6.3,8.0,49,0.00,,,0.00,Rainwise IP-100,2013-09-17 15:19:00,
2013-09-17 11:24:00,57.0,38.0,30.48,NNW,337,7.2,9.0,49,0.00,,,0.00,Rainwise IP-100,2013-09-17 15:24:00,
2013-09-17 11:29:00,57.4,39.0,30.49,WNW,292,7.0,12.0,49,0.00,,,0.00,Rainwise IP-100,2013-09-17 15:29:00,
2013-09-17 11:34:00,57.7,38.0,30.49,NNE,22,11.4,12.0,48,0.00,,,0.00,Rainwise IP-100,2013-09-17 15:34:00,
2013-09-17 11:39:00,57.7,38.0,30.48,NNW,337,4.4,12.0,48,0.00,,,0.00,Rainwise IP-100,2013-09-17 15:39:00,
2013-09-17 11:44:00,57.7,38.0,30.48,ENE,67,4.2,6.0,47,0.00,,,0.00,Rainwise IP-100,2013-09-17 15:44:00,
2013-09-17 11:49:00,58.1,39.0,30.48,East,90,6.5,7.0,48,0.00,,,0.00,Rainwise IP-100,2013-09-17 15:49:00,
2013-09-17 11:54:00,58.0,39.0,30.48,North,360,8.9,9.0,48,0.00,,,0.00,Rainwise IP-100,2013-09-17 15:54:00,
2013-09-17 12:00:00,58.1,39.0,30.48,NNW,337,5.6,10.0,48,0.00,,,0.00,Rainwise IP-100,2013-09-17 16:00:00,
2013-09-17 12:05:00,58.1,39.0,30.48,South,180,3.0,5.0,48,0.00,,,0.00,Rainwise IP-100,2013-09-17 16:05:00,
2013-09-17 12:10:00,57.9,39.0,30.48,NNW,337,8.4,11.0,48,0.00,,,0.00,Rainwise IP-100,2013-09-17 16:10:00,
2013-09-17 12:15:00,57.8,39.0,30.48,ESE,112,3.7,10.0,49,0.00,,,0.00,Rainwise IP-100,2013-09-17 16:15:00,
2013-09-17 12:20:00,57.8,39.0,30.48,ENE,67,7.0,7.0,49,0.00,,,0.00,Rainwise IP-100,2013-09-17 16:20:00,
2013-09-17 12:25:00,58.6,40.0,30.47,NNW,337,0.0,8.0,49,0.00,,,0.00,Rainwise IP-100,2013-09-17 16:25:00,
2013-09-17 12:30:00,59.5,39.0,30.47,NNE,22,3.0,9.0,48,0.00,,,0.00,Rainwise IP-100,2013-09-17 16:30:00,
2013-09-17 12:36:00,59.4,39.0,30.47,ENE,67,4.2,7.0,47,0.00,,,0.00,Rainwise IP-100,2013-09-17 16:36:00,
2013-09-17 12:41:00,58.5,39.0,30.47,ENE,67,3.5,9.0,48,0.00,,,0.00,Rainwise IP-100,2013-09-17 16:41:00,
2013-09-17 12:46:00,58.8,40.0,30.47,SE,135,2.3,6.0,49,0.00,,,0.00,Rainwise IP-100,2013-09-17 16:46:00,
2013-09-17 12:51:00,60.1,40.0,30.47,ENE,67,3.5,4.0,48,0.00,,,0.00,Rainwise IP-100,2013-09-17 16:51:00,
2013-09-17 12:56:00,60.6,40.0,30.46,ESE,112,7.2,7.2,47,0.00,,,0.00,Rainwise IP-100,2013-09-17 16:56:00,
2013-09-17 13:01:00,60.6,39.0,30.47,ESE,112,0.0,9.0,46,0.00,,,0.00,Rainwise IP-100,2013-09-17 17:01:00,
2013-09-17 13:06:00,60.5,39.0,30.46,WSW,247,3.3,7.0,45,0.00,,,0.00,Rainwise IP-100,2013-09-17 17:06:00,
2013-09-17 13:11:00,60.5,39.0,30.46,South,180,0.0,4.0,45,0.00,,,0.00,Rainwise IP-100,2013-09-17 17:11:00,
2013-09-17 13:17:00,60.1,39.0,30.46,SE,135,11.7,12.0,46,0.00,,,0.00,Rainwise IP-100,2013-09-17 17:17:00,
2013-09-17 13:22:00,58.8,40.0,30.46,ESE,112,6.5,13.0,50,0.00,,,0.00,Rainwise IP-100,2013-09-17 17:22:00,
2013-09-17 13:27:00,57.7,41.0,30.46,ESE,112,10.0,11.0,54,0.00,,,0.00,Rainwise IP-100,2013-09-17 17:27:00,
2013-09-17 13:32:00,57.6,41.0,30.45,SE,135,8.6,11.0,55,0.00,,,0.00,Rainwise IP-100,2013-09-17 17:32:00,
2013-09-17 13:37:00,57.4,41.0,30.45,SSE,157,11.2,13.0,54,0.00,,,0.00,Rainwise IP-100,2013-09-17 17:37:00,
2013-09-17 13:42:00,57.3,40.0,30.45,SSE,157,10.3,14.0,54,0.00,,,0.00,Rainwise IP-100,2013-09-17 17:42:00,
2013-09-17 13:47:00,57.3,40.0,30.45,SE,135,7.7,14.0,54,0.00,,,0.00,Rainwise IP-100,2013-09-17 17:47:00,
2013-09-17 13:53:00,57.6,41.0,30.45,SSE,157,8.6,13.0,55,0.00,,,0.00,Rainwise IP-100,2013-09-17 17:53:00,
2013-09-17 13:58:00,57.8,41.0,30.45,ESE,112,7.7,11.0,55,0.00,,,0.00,Rainwise IP-100,2013-09-17 17:58:00,
2013-09-17 14:03:00,57.6,41.0,30.44,SE,135,8.2,12.0,55,0.00,,,0.00,Rainwise IP-100,2013-09-17 18:03:00,
2013-09-17 14:08:00,57.6,41.0,30.45,ESE,112,8.2,11.0,55,0.00,,,0.00,Rainwise IP-100,2013-09-17 18:08:00,
2013-09-17 14:13:00,57.7,42.0,30.45,ESE,112,10.0,11.0,56,0.00,,,0.00,Rainwise IP-100,2013-09-17 18:13:00,
2013-09-17 14:18:00,57.6,41.0,30.44,SE,135,11.0,11.0,55,0.00,,,0.00,Rainwise IP-100,2013-09-17 18:18:00,
2013-09-17 14:23:00,57.7,42.0,30.44,SSE,157,9.1,13.0,56,0.00,,,0.00,Rainwise IP-100,2013-09-17 18:23:00,
2013-09-17 14:29:00,57.6,42.0,30.44,SE,135,8.9,12.0,56,0.00,,,0.00,Rainwise IP-100,2013-09-17 18:29:00,
2013-09-17 14:34:00,57.5,42.0,30.44,ESE,112,11.4,13.0,56,0.00,,,0.00,Rainwise IP-100,2013-09-17 18:34:00,
2013-09-17 14:39:00,57.6,42.0,30.44,ESE,112,9.3,12.0,56,0.00,,,0.00,Rainwise IP-100,2013-09-17 18:39:00,
2013-09-17 14:44:00,57.6,42.0,30.44,SSE,157,10.7,11.0,56,0.00,,,0.00,Rainwise IP-100,2013-09-17 18:44:00,
2013-09-17 14:49:00,58.0,43.0,30.43,SSE,157,9.3,11.0,57,0.00,,,0.00,Rainwise IP-100,2013-09-17 18:49:00,
2013-09-17 14:54:00,58.5,43.0,30.43,SSE,157,9.3,10.0,56,0.00,,,0.00,Rainwise IP-100,2013-09-17 18:54:00,
2013-09-17 14:59:00,58.8,43.0,30.43,SSE,157,8.2,11.0,55,0.00,,,0.00,Rainwise IP-100,2013-09-17 18:59:00,
2013-09-17 15:05:00,58.5,43.0,30.43,SE,135,9.3,11.0,56,0.00,,,0.00,Rainwise IP-100,2013-09-17 19:05:00,
2013-09-17 15:10:00,58.1,43.0,30.43,SE,135,7.0,11.0,57,0.00,,,0.00,Rainwise IP-100,2013-09-17 19:10:00,
2013-09-17 15:15:00,58.3,42.0,30.43,SSE,157,8.9,11.0,56,0.00,,,0.00,Rainwise IP-100,2013-09-17 19:15:00,
2013-09-17 15:20:00,58.3,42.0,30.42,SE,135,9.8,11.0,56,0.00,,,0.00,Rainwise IP-100,2013-09-17 19:20:00,
2013-09-17 15:25:00,58.1,42.0,30.42,ESE,112,5.6,11.0,56,0.00,,,0.00,Rainwise IP-100,2013-09-17 19:25:00,
2013-09-17 15:30:00,58.2,42.0,30.43,ESE,112,6.3,8.0,56,0.00,,,0.00,Rainwise IP-100,2013-09-17 19:30:00,
2013-09-17 15:35:00,58.6,42.0,30.42,SE,135,6.1,7.0,54,0.00,,,0.00,Rainwise IP-100,2013-09-17 19:35:00,
2013-09-17 15:40:00,58.8,42.0,30.42,SE,135,6.8,7.0,53,0.00,,,0.00,Rainwise IP-100,2013-09-17 19:40:00,
2013-09-17 15:46:00,58.6,42.0,30.42,SE,135,3.0,7.0,53,0.00,,,0.00,Rainwise IP-100,2013-09-17 19:46:00,
2013-09-17 15:51:00,58.9,42.0,30.42,ESE,112,8.9,10.0,53,0.00,,,0.00,Rainwise IP-100,2013-09-17 19:51:00,
2013-09-17 15:56:00,58.9,42.0,30.42,ESE,112,4.7,9.0,54,0.00,,,0.00,Rainwise IP-100,2013-09-17 19:56:00,
2013-09-17 16:01:00,58.7,42.0,30.42,ESE,112,8.4,9.0,53,0.00,,,0.00,Rainwise IP-100,2013-09-17 20:01:00,
2013-09-17 16:06:00,58.8,42.0,30.42,SSE,157,5.4,9.0,53,0.00,,,0.00,Rainwise IP-100,2013-09-17 20:06:00,
2013-09-17 16:11:00,59.0,42.0,30.41,SE,135,6.5,8.0,53,0.00,,,0.00,Rainwise IP-100,2013-09-17 20:11:00,
2013-09-17 16:16:00,59.2,42.0,30.41,ESE,112,5.8,8.0,53,0.00,,,0.00,Rainwise IP-100,2013-09-17 20:16:00,
2013-09-17 16:22:00,59.1,42.0,30.41,ESE,112,5.8,8.0,53,0.00,,,0.00,Rainwise IP-100,2013-09-17 20:22:00,
2013-09-17 16:27:00,59.2,42.0,30.41,ESE,112,2.8,6.0,53,0.00,,,0.00,Rainwise IP-100,2013-09-17 20:27:00,
2013-09-17 16:32:00,59.6,42.0,30.41,ESE,112,5.4,5.4,53,0.00,,,0.00,Rainwise IP-100,2013-09-17 20:32:00,
2013-09-17 16:37:00,59.8,42.0,30.41,SSE,157,4.7,7.0,53,0.00,,,0.00,Rainwise IP-100,2013-09-17 20:37:00,
2013-09-17 16:42:00,59.8,42.0,30.41,SE,135,4.2,7.0,52,0.00,,,0.00,Rainwise IP-100,2013-09-17 20:42:00,
2013-09-17 16:47:00,59.8,42.0,30.41,ESE,112,4.0,6.0,52,0.00,,,0.00,Rainwise IP-100,2013-09-17 20:47:00,
2013-09-17 16:52:00,59.7,42.0,30.41,ESE,112,2.8,5.0,52,0.00,,,0.00,Rainwise IP-100,2013-09-17 20:52:00,
2013-09-17 16:57:00,59.9,42.0,30.41,SE,135,3.3,4.0,52,0.00,,,0.00,Rainwise IP-100,2013-09-17 20:57:00,
2013-09-17 17:03:00,60.0,42.0,30.40,SE,135,5.1,5.1,52,0.00,,,0.00,Rainwise IP-100,2013-09-17 21:03:00,
2013-09-17 17:08:00,60.2,43.0,30.41,SE,135,4.0,6.0,53,0.00,,,0.00,Rainwise IP-100,2013-09-17 21:08:00,
2013-09-17 17:13:00,60.7,43.0,30.41,SSE,157,1.2,5.0,53,0.00,,,0.00,Rainwise IP-100,2013-09-17 21:13:00,
2013-09-17 17:18:00,60.8,43.0,30.40,SE,135,4.7,6.0,52,0.00,,,0.00,Rainwise IP-100,2013-09-17 21:18:00,
2013-09-17 17:23:00,60.5,43.0,30.41,ESE,112,4.2,6.0,53,0.00,,,0.00,Rainwise IP-100,2013-09-17 21:23:00,
2013-09-17 17:28:00,60.3,43.0,30.41,SE,135,4.4,8.0,53,0.00,,,0.00,Rainwise IP-100,2013-09-17 21:28:00,
2013-09-17 17:33:00,60.1,43.0,30.40,East,90,5.4,8.0,54,0.00,,,0.00,Rainwise IP-100,2013-09-17 21:33:00,
2013-09-17 17:39:00,60.1,43.0,30.41,ESE,112,5.4,7.0,54,0.00,,,0.00,Rainwise IP-100,2013-09-17 21:39:00,
2013-09-17 17:44:00,60.1,43.0,30.40,ESE,112,2.8,7.0,53,0.00,,,0.00,Rainwise IP-100,2013-09-17 21:44:00,
2013-09-17 17:49:00,60.1,43.0,30.40,SE,135,3.3,5.0,53,0.00,,,0.00,Rainwise IP-100,2013-09-17 21:49:00,
2013-09-17 17:54:00,60.3,42.0,30.41,ESE,112,5.4,5.4,52,0.00,,,0.00,Rainwise IP-100,2013-09-17 21:54:00,
2013-09-17 17:59:00,60.2,43.0,30.40,ESE,112,6.5,7.0,53,0.00,,,0.00,Rainwise IP-100,2013-09-17 21:59:00,
2013-09-17 18:04:00,60.0,43.0,30.41,SE,135,5.1,7.0,53,0.00,,,0.00,Rainwise IP-100,2013-09-17 22:04:00,
2013-09-17 18:09:00,60.2,43.0,30.41,SE,135,4.4,5.0,54,0.00,,,0.00,Rainwise IP-100,2013-09-17 22:09:00,
2013-09-17 18:14:00,60.3,43.0,30.40,ESE,112,3.7,6.0,54,0.00,,,0.00,Rainwise IP-100,2013-09-17 22:14:00,
2013-09-17 18:20:00,60.2,43.0,30.40,ESE,112,4.0,5.0,54,0.00,,,0.00,Rainwise IP-100,2013-09-17 22:20:00,
2013-09-17 18:25:00,60.1,43.0,30.41,ESE,112,4.4,6.0,54,0.00,,,0.00,Rainwise IP-100,2013-09-17 22:25:00,
2013-09-17 18:30:00,60.2,43.0,30.40,East,90,4.7,5.0,54,0.00,,,0.00,Rainwise IP-100,2013-09-17 22:30:00,
2013-09-17 18:35:00,60.3,43.0,30.40,SE,135,2.8,6.0,54,0.00,,,0.00,Rainwise IP-100,2013-09-17 22:35:00,
2013-09-17 18:40:00,60.3,44.0,30.40,ESE,112,2.8,4.0,55,0.00,,,0.00,Rainwise IP-100,2013-09-17 22:40:00,
2013-09-17 18:45:00,60.5,44.0,30.40,East,90,2.3,4.0,55,0.00,,,0.00,Rainwise IP-100,2013-09-17 22:45:00,
2013-09-17 18:50:00,60.5,45.0,30.40,East,90,1.9,3.0,56,0.00,,,0.00,Rainwise IP-100,2013-09-17 22:50:00,
2013-09-17 18:56:00,60.3,45.0,30.40,ENE,67,2.6,4.0,57,0.00,,,0.00,Rainwise IP-100,2013-09-17 22:56:00,
2013-09-17 19:01:00,59.9,45.0,30.40,East,90,2.1,3.0,58,0.00,,,0.00,Rainwise IP-100,2013-09-17 23:01:00,
2013-09-17 19:06:00,59.7,45.0,30.40,ENE,67,1.2,3.0,59,0.00,,,0.00,Rainwise IP-100,2013-09-17 23:06:00,
2013-09-17 19:11:00,59.4,46.0,30.40,North,360,0.0,1.0,61,0.00,,,0.00,Rainwise IP-100,2013-09-17 23:11:00,
2013-09-17 19:16:00,58.7,47.0,30.40,WNW,292,2.3,3.0,64,0.00,,,0.00,Rainwise IP-100,2013-09-17 23:16:00,
2013-09-17 19:21:00,58.1,47.0,30.40,WNW,292,1.2,2.0,67,0.00,,,0.00,Rainwise IP-100,2013-09-17 23:21:00,
2013-09-17 19:26:00,57.7,47.0,30.40,WNW,292,2.1,2.1,69,0.00,,,0.00,Rainwise IP-100,2013-09-17 23:26:00,
2013-09-17 19:32:00,57.3,47.0,30.40,NW,315,3.3,3.3,70,0.00,,,0.00,Rainwise IP-100,2013-09-17 23:32:00,
2013-09-17 19:37:00,57.1,48.0,30.40,NW,315,1.6,3.0,72,0.00,,,0.00,Rainwise IP-100,2013-09-17 23:37:00,
2013-09-17 19:42:00,56.9,48.0,30.40,NW,315,2.6,3.0,73,0.00,,,0.00,Rainwise IP-100,2013-09-17 23:42:00,
2013-09-17 19:47:00,56.7,48.0,30.40,NW,315,2.8,2.8,74,0.00,,,0.00,Rainwise IP-100,2013-09-17 23:47:00,
2013-09-17 19:52:00,56.4,48.0,30.40,NW,315,3.3,3.3,74,0.00,,,0.00,Rainwise IP-100,2013-09-17 23:52:00,
2013-09-17 19:57:00,56.3,47.0,30.40,NW,315,2.8,4.0,74,0.00,,,0.00,Rainwise IP-100,2013-09-17 23:57:00,
2013-09-17 20:02:00,56.3,47.0,30.40,NW,315,3.3,4.0,74,0.00,,,0.00,Rainwise IP-100,2013-09-18 00:02:00,
2013-09-17 20:07:00,56.1,48.0,30.41,NW,315,3.0,4.0,75,0.00,,,0.00,Rainwise IP-100,2013-09-18 00:07:00,
2013-09-17 20:13:00,55.9,48.0,30.41,NNW,337,4.2,4.2,75,0.00,,,0.00,Rainwise IP-100,2013-09-18 00:13:00,
2013-09-17 20:18:00,55.7,48.0,30.41,NNW,337,3.0,4.0,75,0.00,,,0.00,Rainwise IP-100,2013-09-18 00:18:00,
2013-09-17 20:23:00,55.4,47.0,30.41,NNW,337,3.7,4.0,76,0.00,,,0.00,Rainwise IP-100,2013-09-18 00:23:00,
2013-09-17 20:28:00,55.2,48.0,30.41,NNW,337,3.5,4.0,77,0.00,,,0.00,Rainwise IP-100,2013-09-18 00:28:00,
2013-09-17 20:33:00,54.9,48.0,30.41,NW,315,4.7,4.7,77,0.00,,,0.00,Rainwise IP-100,2013-09-18 00:33:00,
2013-09-17 20:38:00,54.7,48.0,30.41,NW,315,3.7,4.0,78,0.00,,,0.00,Rainwise IP-100,2013-09-18 00:38:00,
2013-09-17 20:43:00,54.5,48.0,30.41,NNW,337,3.7,5.0,78,0.00,,,0.00,Rainwise IP-100,2013-09-18 00:43:00,
2013-09-17 20:48:00,54.1,47.0,30.41,NNW,337,3.0,4.0,79,0.00,,,0.00,Rainwise IP-100,2013-09-18 00:48:00,
2013-09-17 20:54:00,53.7,47.0,30.41,NNW,337,3.0,4.0,80,0.00,,,0.00,Rainwise IP-100,2013-09-18 00:54:00,
2013-09-17 20:59:00,53.6,47.0,30.41,NNW,337,4.0,4.0,81,0.00,,,0.00,Rainwise IP-100,2013-09-18 00:59:00,
2013-09-17 21:04:00,53.5,47.0,30.41,NNW,337,3.7,4.0,81,0.00,,,0.00,Rainwise IP-100,2013-09-18 01:04:00,
2013-09-17 21:09:00,53.3,47.0,30.41,NNW,337,3.0,5.0,81,0.00,,,0.00,Rainwise IP-100,2013-09-18 01:09:00,
2013-09-17 21:14:00,53.0,47.0,30.41,NNW,337,3.5,4.0,81,0.00,,,0.00,Rainwise IP-100,2013-09-18 01:14:00,
2013-09-17 21:19:00,52.8,47.0,30.41,NNW,337,4.0,5.0,82,0.00,,,0.00,Rainwise IP-100,2013-09-18 01:19:00,
2013-09-17 21:24:00,52.7,47.0,30.41,NNW,337,3.7,4.0,82,0.00,,,0.00,Rainwise IP-100,2013-09-18 01:24:00,
2013-09-17 21:30:00,52.7,47.0,30.41,NW,315,4.9,5.0,83,0.00,,,0.00,Rainwise IP-100,2013-09-18 01:30:00,
2013-09-17 21:35:00,52.6,47.0,30.41,NNW,337,4.0,5.0,83,0.00,,,0.00,Rainwise IP-100,2013-09-18 01:35:00,
2013-09-17 21:40:00,52.3,47.0,30.41,NNW,337,5.1,5.1,83,0.00,,,0.00,Rainwise IP-100,2013-09-18 01:40:00,
2013-09-17 21:45:00,52.1,47.0,30.41,NNW,337,4.9,6.0,84,0.00,,,0.00,Rainwise IP-100,2013-09-18 01:45:00,
2013-09-17 21:50:00,51.8,47.0,30.41,NNW,337,4.9,5.0,84,0.00,,,0.00,Rainwise IP-100,2013-09-18 01:50:00,
2013-09-17 21:55:00,51.5,47.0,30.41,NNW,337,4.4,5.0,84,0.00,,,0.00,Rainwise IP-100,2013-09-18 01:55:00,
2013-09-17 22:00:00,51.3,47.0,30.41,NNW,337,3.5,6.0,84,0.00,,,0.00,Rainwise IP-100,2013-09-18 02:00:00,
2013-09-17 22:05:00,51.3,47.0,30.41,NW,315,5.4,5.4,85,0.00,,,0.00,Rainwise IP-100,2013-09-18 02:05:00,
2013-09-17 22:11:00,51.2,47.0,30.41,NW,315,5.4,5.4,85,0.00,,,0.00,Rainwise IP-100,2013-09-18 02:11:00,
2013-09-17 22:16:00,51.1,47.0,30.41,NNW,337,5.6,6.0,85,0.00,,,0.00,Rainwise IP-100,2013-09-18 02:16:00,
2013-09-17 22:21:00,50.9,47.0,30.41,NNW,337,5.6,6.0,86,0.00,,,0.00,Rainwise IP-100,2013-09-18 02:21:00,
2013-09-17 22:26:00,50.8,47.0,30.40,NNW,337,4.7,6.0,86,0.00,,,0.00,Rainwise IP-100,2013-09-18 02:26:00,
2013-09-17 22:31:00,50.8,47.0,30.41,NNW,337,5.6,6.0,86,0.00,,,0.00,Rainwise IP-100,2013-09-18 02:31:00,
2013-09-17 22:36:00,50.7,47.0,30.41,NNW,337,4.4,6.0,86,0.00,,,0.00,Rainwise IP-100,2013-09-18 02:36:00,
2013-09-17 22:41:00,50.7,47.0,30.41,NNW,337,5.4,6.0,86,0.00,,,0.00,Rainwise IP-100,2013-09-18 02:41:00,
2013-09-17 22:47:00,50.7,47.0,30.40,NNW,337,5.6,7.0,87,0.00,,,0.00,Rainwise IP-100,2013-09-18 02:47:00,
2013-09-17 22:52:00,50.6,47.0,30.40,NNW,337,5.4,7.0,87,0.00,,,0.00,Rainwise IP-100,2013-09-18 02:52:00,
2013-09-17 22:57:00,50.6,47.0,30.40,NNW,337,5.6,6.0,87,0.00,,,0.00,Rainwise IP-100,2013-09-18 02:57:00,
2013-09-17 23:02:00,50.5,47.0,30.41,NNW,337,4.4,7.0,87,0.00,,,0.00,Rainwise IP-100,2013-09-18 03:02:00,
2013-09-17 23:07:00,50.3,46.0,30.41,NNW,337,4.7,6.0,87,0.00,,,0.00,Rainwise IP-100,2013-09-18 03:07:00,
2013-09-17 23:12:00,50.3,47.0,30.40,NNW,337,5.6,6.0,88,0.00,,,0.00,Rainwise IP-100,2013-09-18 03:12:00,
2013-09-17 23:17:00,50.3,46.0,30.41,NW,315,7.0,7.0,87,0.00,,,0.00,Rainwise IP-100,2013-09-18 03:17:00,
2013-09-17 23:22:00,50.2,46.0,30.41,NNW,337,6.3,7.0,87,0.00,,,0.00,Rainwise IP-100,2013-09-18 03:22:00,
2013-09-17 23:28:00,50.1,46.0,30.41,NNW,337,6.1,8.0,86,0.00,,,0.00,Rainwise IP-100,2013-09-18 03:28:00,
2013-09-17 23:33:00,50.0,46.0,30.41,NNW,337,7.5,8.0,86,0.00,,,0.00,Rainwise IP-100,2013-09-18 03:33:00,
2013-09-17 23:38:00,50.0,46.0,30.40,NNW,337,7.0,8.0,87,0.00,,,0.00,Rainwise IP-100,2013-09-18 03:38:00,
2013-09-17 23:43:00,49.8,46.0,30.41,NNW,337,8.4,8.4,87,0.00,,,0.00,Rainwise IP-100,2013-09-18 03:43:00,
2013-09-17 23:48:00,49.6,47.0,30.40,NNW,337,6.5,8.0,88,0.00,,,0.00,Rainwise IP-100,2013-09-18 03:48:00,
2013-09-17 23:53:00,49.5,47.0,30.40,NW,315,7.2,7.2,88,0.00,,,0.00,Rainwise IP-100,2013-09-18 03:53:00,
2013-09-17 23:58:00,49.5,47.0,30.40,NNW,337,5.6,7.0,88,0.00,,,0.00,Rainwise IP-100,2013-09-18 03:58:00,